GALAXY 18

导读 | 星芒AI

GALAXY 18 是一颗由美国劳拉空间系统公司制造的通信卫星,于2005年发射,由Intelsat运营。该卫星位于西经177度轨道位置,主要服务于美洲、加勒比海和太平洋地区的固定卫星服务(FSS)和广播市场。GALAXY 18 提供C波段和Ku波段传输,广泛用于电视广播、企业通信和互联网接入。其高功率和先进设计使其成为北美地区重要的通信枢纽之一。

基本信息
目录编号:
32951
目录名称:
GALAXY 18
国际标识:
2008-024A
轨道中心:
EARTH
卫星名称:
GALAXY 18
卫星全名:
--
卫星状态:
在轨 (已飞行6370 天)
发射日期:
2008-05-21 UTC
国别 :
美国 (US)
星等 :
--
轨道信息
数据来源 国际轨道数据 AOE轨道数据
星历时间 2025-10-28T22:10:14+0800
17小时前
查看轨道信息
2025-10-26T15:00:00+0800
3天前
查看轨道信息
半长轴 42165.289km 42164.476km
偏心率 0.0003045 0.0003162
轨道倾角 0.028° 0.013°
近地点辐角 313.551° 333.156°
升交点赤经 265.457° 248.671°
平近点角 267.754° 155.104°
近地点 35774.314km 35773.008km
远地点 35799.994km 35799.674km
周期 1436.125分钟 1436.084分钟
每日圈数 1.002698 1.002727
详细信息
使用方式:
暂无
2D轨道图
3D轨道图
轨道高度分析图
轨道倾角分析图
轨道综合分析图
查看轨道综合分析图